FW6558 Weather Reports


Display with metric or nautical units.
time (UTC)temp
F
wind
direction
speed
MPH
gust
MPH
rain 1hr
in
rain 24hr
in
rain mn
in
humidity
%
barometer
mb
20260505124805 58 51 3.0 5.0 0.00 0.00 0.00 64 1016.0
20260505124304 58 63 2.0 5.0 0.00 0.00 0.00 65 1016.1
20260505123804 56 56 1.0 2.0 0.00 0.00 0.00 66 1016.5
20260505123304 57 54 2.0 5.0 0.00 0.00 0.00 67 1016.5
20260505122804 57 60 1.0 2.0 0.00 0.00 0.00 65 1016.4
20260505121804 56 60 1.0 3.0 0.00 0.00 0.00 64 1016.5
20260505121304 57 61 1.0 2.0 0.00 0.00 0.00 65 1016.3
20260505120804 56 59 0.0 2.0 0.00 0.00 0.00 64 1016.5
20260505120304 54 87 2.0 5.0 0.00 0.00 0.00 69 1016.9
20260505115804 55 257 1.0 3.0 0.00 0.00 0.00 65 1016.6
20260505115305 54 232 0.0 1.0 0.00 0.00 0.00 66 1017.0
20260505114804 53 231 0.0 2.0 0.00 0.00 0.00 66 1017.3
20260505113804 52 295 0.0 2.0 0.00 0.00 0.00 67 1017.0
20260505113304 52 315 1.0 2.0 0.00 0.00 0.00 70 1017.3
20260505112804 51 251 1.0 2.0 0.00 0.00 0.00 70 1017.6
20260505112305 50 251 1.0 2.0 0.00 0.00 0.00 71 1017.5
20260505111304 49 252 1.0 3.0 0.00 0.00 0.00 75 1017.8
20260505110804 48 267 1.0 3.0 0.00 0.00 0.00 75 1018.0
20260505110304 48 255 2.0 3.0 0.00 0.00 0.00 75 1018.0
20260505101804 48 273 2.0 2.0 0.00 0.00 0.00 74 1017.5
20260505100803 48 59 1.0 2.0 0.00 0.00 0.00 75 1017.7
20260505100304 49 57 0.0 1.0 0.00 0.00 0.00 74 1017.5
20260505095804 49 58 1.0 2.0 0.00 0.00 0.00 72 1017.2
20260505095305 49 69 1.0 1.0 0.00 0.00 0.00 73 1017.3
20260505094303 49 69 1.0 2.0 0.00 0.00 0.00 73 1017.2
20260505092805 50 325 1.0 2.0 0.00 0.00 0.00 70 1017.1
20260505092305 52 124 0.0 2.0 0.00 0.00 0.00 66 1016.4
20260505091804 53 124 2.0 2.0 0.00 0.00 0.00 64 1016.2
20260505090808 54 169 0.0 1.0 0.00 0.00 0.00 62 1016.3
20260505090307 53 169 1.0 2.0 0.00 0.00 0.00 62 1016.4
20260505085807 53 149 2.0 2.0 0.00 0.00 0.00 63 1016.4
20260505085308 53 96 0.0 2.0 0.00 0.00 0.00 63 1016.6
20260505084808 53 96 2.0 3.0 0.00 0.00 0.00 63 1016.2
20260505084307 53 82 2.0 3.0 0.00 0.00 0.00 64 1016.3
20260505083807 52 232 1.0 2.0 0.00 0.00 0.00 65 1016.7
20260505083308 52 234 0.0 0.0 0.00 0.00 0.00 65 1016.4
20260505082807 52 234 0.0 1.0 0.00 0.00 0.00 64 1016.4
20260505082308 53 234 0.0 2.0 0.00 0.00 0.00 63 1016.6
20260505081807 53 234 0.0 2.0 0.00 0.00 0.00 62 1016.4
20260505081308 53 234 0.0 2.0 0.00 0.00 0.00 62 1016.0
20260505080307 52 245 2.0 2.0 0.00 0.00 0.00 64 1016.5
20260505075807 52 258 0.0 0.0 0.00 0.00 0.00 63 1016.0
20260505075307 53 258 0.0 0.0 0.00 0.00 0.00 62 1015.9
20260505074807 53 258 0.0 1.0 0.00 0.00 0.00 61 1016.0
20260505074308 53 258 0.0 2.0 0.00 0.00 0.00 61 1015.9
20260505073808 53 258 1.0 2.0 0.00 0.00 0.00 61 1015.8
20260505072807 54 247 0.0 2.0 0.00 0.00 0.00 60 1015.6
20260505072307 54 247 0.0 3.0 0.00 0.00 0.00 60 1015.4
20260505071308 55 41 0.0 3.0 0.00 0.00 0.00 58 1015.1
20260505070807 55 211 0.0 1.0 0.00 0.00 0.00 57 1015.2
20260505070307 55 210 1.0 6.0 0.00 0.00 0.00 58 1014.9
20260505065807 55 265 2.0 6.0 0.00 0.00 0.00 58 1015.0
20260505065307 55 225 0.0 3.0 0.00 0.00 0.00 58 1015.1
20260505064808 56 325 2.0 3.0 0.00 0.00 0.00 57 1015.0
20260505064307 56 249 2.0 8.0 0.00 0.00 0.00 56 1014.6
20260505063807 56 289 2.0 8.0 0.00 0.00 0.00 55 1014.5
20260505063307 56 246 0.0 2.0 0.00 0.00 0.00 56 1014.8
20260505062807 57 248 1.0 3.0 0.00 0.00 0.00 55 1014.7
20260505062307 57 235 1.0 3.0 0.00 0.00 0.00 55 1014.7
20260505061807 57 220 2.0 5.0 0.00 0.00 0.00 54 1014.5
20260505061307 57 261 2.0 5.0 0.00 0.00 0.00 55 1014.9
20260505055807 57 228 1.0 3.0 0.00 0.00 0.00 53 1014.9
20260505055307 57 196 0.0 3.0 0.00 0.00 0.00 53 1014.6
20260505054808 57 264 2.0 8.0 0.00 0.00 0.00 53 1014.6
20260505053807 58 41 2.0 5.0 0.00 0.00 0.00 53 1014.6
20260505053307 59 6 1.0 13.0 0.00 0.00 0.00 51 1014.2
20260505052807 59 260 9.0 15.0 0.00 0.00 0.00 50 1013.9
20260505052307 59 288 9.0 15.0 0.00 0.00 0.00 50 1014.0
20260505051807 59 285 5.0 12.0 0.00 0.00 0.00 50 1013.9
20260505051307 59 201 6.0 14.0 0.00 0.00 0.00 50 1014.1
20260505050807 59 261 5.0 10.0 0.00 0.00 0.00 50 1013.9
20260505050307 59 246 5.0 10.0 0.00 0.00 0.00 49 1014.1
20260505041307 60 222 8.0 16.0 0.00 0.00 0.00 45 1013.7
20260505040806 60 245 5.0 14.0 0.00 0.00 0.00 45 1013.8
20260505040307 60 235 6.0 15.0 0.00 0.00 0.00 45 1013.6
20260505035807 60 214 5.0 20.0 0.00 0.00 0.00 45 1013.8
20260505035307 60 247 7.0 17.0 0.00 0.00 0.00 45 1013.8
20260505034806 60 230 5.0 20.0 0.00 0.00 0.00 46 1013.7
20260505034307 60 242 7.0 20.0 0.00 0.00 0.00 45 1013.9
20260505033307 60 191 4.0 18.0 0.00 0.00 0.00 45 1014.0
20260505032306 60 232 5.0 10.0 0.00 0.00 0.00 46 1014.5
20260505031806 60 237 3.0 16.0 0.00 0.00 0.00 45 1014.2
20260505030806 60 217 3.0 12.0 0.00 0.00 0.00 45 1014.2
20260505030307 60 192 6.0 13.0 0.00 0.00 0.00 45 1014.1
20260505025807 60 226 7.0 13.0 0.00 0.00 0.00 45 1014.1
20260505025306 60 221 6.0 13.0 0.00 0.00 0.00 45 1014.5
20260505024806 61 218 6.0 21.0 0.00 0.00 0.00 45 1014.2
20260505024306 61 217 9.0 21.0 0.00 0.00 0.00 45 1014.3
20260505023807 61 219 11.0 18.0 0.00 0.00 0.00 45 1014.3
20260505023306 61 225 8.0 15.0 0.00 0.00 0.00 46 1014.4
20260505022806 61 214 7.0 18.0 0.00 0.00 0.00 46 1014.4
20260505021806 61 234 7.0 12.0 0.00 0.00 0.00 47 1014.5
20260505021307 61 229 9.0 12.0 0.00 0.00 0.00 47 1014.2
20260505020806 61 222 6.0 13.0 0.00 0.00 0.00 47 1014.4
20260505020307 61 246 6.0 12.0 0.00 0.00 0.00 48 1014.5
20260505015806 61 221 8.0 10.0 0.00 0.00 0.00 48 1014.2
20260505015306 61 240 5.0 13.0 0.00 0.00 0.00 47 1014.2
20260505014307 62 226 7.0 12.0 0.00 0.00 0.00 47 1014.1
20260505013807 62 215 7.0 14.0 0.00 0.00 0.00 46 1014.0
20260505013307 62 236 8.0 16.0 0.00 0.00 0.00 46 1014.1
20260505012806 62 259 8.0 16.0 0.00 0.00 0.00 46 1014.0
20260505011807 62 256 7.0 13.0 0.00 0.00 0.00 46 1013.9
20260505011306 63 210 10.0 20.0 0.00 0.00 0.00 45 1013.7
20260505010807 62 225 7.0 16.0 0.00 0.00 0.00 46 1013.7
20260505010307 63 230 7.0 15.0 0.00 0.00 0.00 46 1013.7
20260505005806 63 260 9.0 15.0 0.00 0.00 0.00 46 1013.5
20260505005306 63 220 6.0 9.0 0.00 0.00 0.00 47 1013.5
20260505004807 63 241 5.0 15.0 0.00 0.00 0.00 47 1013.2
20260505004307 63 227 5.0 10.0 0.00 0.00 0.00 47 1013.1
20260505003806 63 210 7.0 10.0 0.00 0.00 0.00 47 1013.1
20260505003306 63 218 6.0 12.0 0.00 0.00 0.00 46 1013.0
20260505002806 63 214 4.0 10.0 0.00 0.00 0.00 47 1012.9
20260505002306 64 230 3.0 13.0 0.00 0.00 0.00 47 1012.9
20260505001806 64 232 5.0 13.0 0.00 0.00 0.00 46 1013.1
20260505001306 64 189 4.0 10.0 0.00 0.00 0.00 46 1012.8
20260505000806 64 207 3.0 13.0 0.00 0.00 0.00 46 1012.6
20260505000306 64 214 5.0 13.0 0.00 0.00 0.00 45 1012.6
20260504235806 65 220 5.0 9.0 0.00 0.00 0.00 45 1012.7
20260504235306 65 199 4.0 14.0 0.00 0.00 0.00 45 1012.3
20260504234805 66 214 7.0 20.0 0.00 0.00 0.00 44 1012.2
20260504234306 66 154 8.0 20.0 0.00 0.00 0.00 43 1011.9
20260504233806 67 222 5.0 13.0 0.00 0.00 0.00 42 1012.0
20260504232805 67 217 7.0 14.0 0.00 0.00 0.00 42 1011.9
20260504231806 68 197 3.0 6.0 0.00 0.00 0.00 42 1016.7
20260504230806 68 197 3.0 10.0 0.00 0.00 0.00 42 1011.6
20260504230306 67 223 8.0 10.0 0.00 0.00 0.00 41 1011.6
20260504225806 68 190 8.0 16.0 0.00 0.00 0.00 41 1011.7
20260504225305 69 188 7.0 14.0 0.00 0.00 0.00 41 1011.7
20260504224805 69 203 6.0 8.0 0.00 0.00 0.00 40 1016.2
20260504224306 69 203 6.0 8.0 0.00 0.00 0.00 40 1011.4
20260504223806 69 203 5.0 8.0 0.00 0.00 0.00 40 1011.3
20260504222805 70 221 3.0 3.0 0.00 0.00 0.00 41 1011.2
20260504222305 71 174 2.0 7.0 0.00 0.00 0.00 38 1011.2
20260504221806 72 283 3.0 7.0 0.00 0.00 0.00 33 1010.9
20260504221306 71 240 4.0 8.0 0.00 0.00 0.00 34 1010.8
20260504220806 71 263 7.0 13.0 0.00 0.00 0.00 32 1010.7
20260504215806 71 211 7.0 12.0 0.00 0.00 0.00 33 1010.8
20260504214806 71 236 7.0 9.0 0.00 0.00 0.00 34 1010.9
20260504214306 71 244 11.0 16.0 0.00 0.00 0.00 34 1010.8
20260504213806 71 246 8.0 14.0 0.00 0.00 0.00 36 1010.8
20260504213305 71 235 9.0 14.0 0.00 0.00 0.00 35 1011.1
20260504212806 71 251 9.0 13.0 0.00 0.00 0.00 35 1011.1
20260504212306 71 259 6.0 7.0 0.00 0.00 0.00 41 1011.2
20260504211305 70 278 8.0 10.0 0.00 0.00 0.00 42 1016.5
20260504210805 70 278 8.0 10.0 0.00 0.00 0.00 42 1011.5
20260504210306 70 277 7.0 12.0 0.00 0.00 0.00 42 1011.3
20260504205805 69 261 9.0 12.0 0.00 0.00 0.00 42 1011.8
20260504205306 69 245 7.0 9.0 0.00 0.00 0.00 44 1011.7
20260504204806 69 248 8.0 12.0 0.00 0.00 0.00 44 1011.5
20260504204305 68 259 9.0 12.0 0.00 0.00 0.00 44 1012.0
20260504203806 68 260 9.0 14.0 0.00 0.00 0.00 44 1011.9
20260504202805 68 267 8.0 15.0 0.00 0.00 0.00 46 1011.8
20260504202306 68 270 6.0 16.0 0.00 0.00 0.00 44 1012.1
20260504201805 68 262 13.0 14.0 0.00 0.00 0.00 45 1011.9
20260504201305 68 281 7.0 14.0 0.00 0.00 0.00 45 1012.6
20260504200306 69 256 9.0 13.0 0.00 0.00 0.00 44 1012.7
20260504195805 67 249 12.0 13.0 0.00 0.00 0.00 47 1017.4
20260504195305 67 249 12.0 13.0 0.00 0.00 0.00 47 1012.7
20260504194806 67 249 12.0 16.0 0.00 0.00 0.00 47 1012.8
20260504194306 67 228 11.0 14.0 0.00 0.00 0.00 46 1012.6
20260504193805 69 231 8.0 10.0 0.00 0.00 0.00 44 1012.5
20260504193306 69 260 8.0 13.0 0.00 0.00 0.00 44 1012.4
20260504192805 69 277 10.0 13.0 0.00 0.00 0.00 45 1012.7
20260504192305 69 245 7.0 9.0 0.00 0.00 0.00 45 1012.7
20260504191805 69 232 6.0 13.0 0.00 0.00 0.00 44 1012.8
20260504191306 68 246 8.0 14.0 0.00 0.00 0.00 47 1012.7
20260504190805 68 261 6.0 14.0 0.00 0.00 0.00 48 1013.1
20260504190305 68 246 7.0 10.0 0.00 0.00 0.00 46 1013.2
20260504185805 67 269 6.0 16.0 0.00 0.00 0.00 47 1013.3
20260504185306 67 284 13.0 16.0 0.00 0.00 0.00 48 1013.2
20260504184805 68 228 7.0 15.0 0.00 0.00 0.00 46 1013.3
20260504184305 66 257 3.0 14.0 0.00 0.00 0.00 49 1013.4
20260504183805 67 262 10.0 14.0 0.00 0.00 0.00 49 1013.4
20260504183305 67 279 7.0 8.0 0.00 0.00 0.00 48 1013.6
20260504182805 66 259 6.0 17.0 0.00 0.00 0.00 49 1013.7
20260504181805 65 274 6.0 9.0 0.00 0.00 0.00 51 1013.9
20260504180805 64 236 7.0 9.0 0.00 0.00 0.00 51 1018.4
20260504180305 64 236 7.0 9.0 0.00 0.00 0.00 51 1018.5
20260504175806 64 236 7.0 10.0 0.00 0.00 0.00 51 1014.5
20260504174805 64 267 10.0 15.0 0.00 0.00 0.00 51 1014.6
20260504174305 63 259 8.0 15.0 0.00 0.00 0.00 51 1014.5
20260504173805 63 246 9.0 20.0 0.00 0.00 0.00 51 1014.6
20260504173305 63 264 15.0 20.0 0.00 0.00 0.00 51 1014.8
20260504172805 64 239 10.0 18.0 0.00 0.00 0.00 51 1014.8
20260504172305 63 253 7.0 20.0 0.00 0.00 0.00 52 1014.8
20260504171305 63 247 8.0 20.0 0.00 0.00 0.00 51 1014.8
20260504170805 63 266 13.0 16.0 0.00 0.00 0.00 51 1014.9
20260504170305 63 259 14.0 16.0 0.00 0.00 0.00 50 1015.0
20260504160305 60 306 16.0 21.0 0.00 0.00 0.00 54 1016.2
20260504150805 55 270 8.0 22.0 0.00 0.00 0.00 62 1017.8
20260504150304 55 274 14.0 25.0 0.00 0.00 0.00 62 1017.8
20260504141304 57 257 22.0 35.0 0.00 0.00 0.00 50 1018.0
20260504140805 57 269 20.0 25.0 0.00 0.00 0.00 49 1017.8
20260504140304 57 243 13.0 22.0 0.00 0.00 0.00 47 1018.0